TimeCST,TemperatureF,Dew PointF,Humidity,Sea Level PressureIn,VisibilityMPH,Wind Direction,Wind SpeedMPH,Gust SpeedMPH,PrecipitationIn,Events,Conditions,WindDirDegrees,DateUTC
12:15 AM,41.0,26.6,57,30.15,10.0,South,5.8,-,N/A,,Clear,170,2012-12-14 06:15:00
12:35 AM,41.0,26.6,57,30.15,10.0,South,6.9,-,N/A,,Clear,170,2012-12-14 06:35:00
12:55 AM,41.0,26.6,57,30.15,10.0,SSE,5.8,-,N/A,,Clear,160,2012-12-14 06:55:00
1:15 AM,39.2,26.6,61,30.15,10.0,SSE,5.8,-,N/A,,Clear,160,2012-12-14 07:15:00
1:35 AM,39.2,26.6,61,30.14,10.0,SSE,5.8,-,N/A,,Clear,150,2012-12-14 07:35:00
1:55 AM,39.2,26.6,61,30.15,10.0,SSE,5.8,-,N/A,,Clear,150,2012-12-14 07:55:00
2:15 AM,39.2,26.6,61,30.15,10.0,Calm,Calm,-,N/A,,Clear,0,2012-12-14 08:15:00
2:55 AM,37.4,28.4,70,30.15,9.0,Calm,Calm,-,N/A,,Clear,0,2012-12-14 08:55:00
3:15 AM,37.4,28.4,70,30.15,10.0,Calm,Calm,-,N/A,,Clear,0,2012-12-14 09:15:00
3:55 AM,37.4,28.4,70,30.14,10.0,Calm,Calm,-,N/A,,Clear,0,2012-12-14 09:55:00
4:15 AM,37.4,28.4,70,30.14,10.0,Calm,Calm,-,N/A,,Clear,0,2012-12-14 10:15:00
4:35 AM,37.4,26.6,65,30.13,10.0,Calm,Calm,-,N/A,,Clear,0,2012-12-14 10:35:00
4:55 AM,35.6,26.6,70,30.13,10.0,Calm,Calm,-,N/A,,Clear,0,2012-12-14 10:55:00
5:15 AM,37.4,26.6,65,30.13,10.0,Calm,Calm,-,N/A,,Clear,0,2012-12-14 11:15:00
5:35 AM,35.6,26.6,70,30.13,10.0,Calm,Calm,-,N/A,,Clear,0,2012-12-14 11:35:00
5:55 AM,35.6,26.6,70,30.14,10.0,Calm,Calm,-,N/A,,Clear,0,2012-12-14 11:55:00
6:15 AM,35.6,26.6,70,30.13,10.0,Calm,Calm,-,N/A,,Clear,0,2012-12-14 12:15:00
6:35 AM,35.6,26.6,70,30.14,10.0,Calm,Calm,-,N/A,,Clear,0,2012-12-14 12:35:00
6:55 AM,35.6,26.6,70,30.14,9.0,Calm,Calm,-,N/A,,Clear,0,2012-12-14 12:55:00
7:15 AM,37.4,28.4,70,30.14,10.0,Calm,Calm,-,N/A,,Clear,0,2012-12-14 13:15:00
7:35 AM,37.4,28.4,70,30.14,9.0,Calm,Calm,-,N/A,,Clear,0,2012-12-14 13:35:00
7:55 AM,37.4,28.4,70,30.14,8.0,Calm,Calm,-,N/A,,Clear,0,2012-12-14 13:55:00
8:15 AM,37.4,28.4,70,30.13,9.0,SSE,5.8,-,N/A,,Clear,150,2012-12-14 14:15:00
8:55 AM,41.0,30.2,65,30.12,8.0,SSE,5.8,-,N/A,,Clear,150,2012-12-14 14:55:00
9:15 AM,42.8,30.2,61,30.12,8.0,SSE,6.9,-,N/A,,Clear,160,2012-12-14 15:15:00
9:35 AM,44.6,30.2,57,30.12,9.0,Calm,Calm,-,N/A,,Clear,0,2012-12-14 15:35:00
9:55 AM,46.4,30.2,53,30.12,8.0,SSE,6.9,-,N/A,,Clear,160,2012-12-14 15:55:00
10:15 AM,48.2,28.4,46,30.12,8.0,South,8.1,-,N/A,,Clear,170,2012-12-14 16:15:00
10:55 AM,50.0,28.4,43,30.11,9.0,South,11.5,-,N/A,,Partly Cloudy,180,2012-12-14 16:55:00
11:15 AM,51.8,28.4,41,30.10,9.0,South,10.4,-,N/A,,Partly Cloudy,180,2012-12-14 17:15:00
11:35 AM,51.8,30.2,44,30.09,10.0,South,9.2,-,N/A,,Scattered Clouds,180,2012-12-14 17:35:00
11:55 AM,53.6,28.4,38,30.09,9.0,South,10.4,16.1,N/A,,Mostly Cloudy,190,2012-12-14 17:55:00
12:15 PM,53.6,30.2,41,30.08,9.0,South,10.4,-,N/A,,Overcast,180,2012-12-14 18:15:00
12:35 PM,53.6,30.2,41,30.06,9.0,South,6.9,-,N/A,,Mostly Cloudy,180,2012-12-14 18:35:00
12:55 PM,53.6,30.2,41,30.05,9.0,South,8.1,-,N/A,,Overcast,190,2012-12-14 18:55:00
1:15 PM,53.6,30.2,41,30.04,10.0,South,5.8,-,N/A,,Mostly Cloudy,190,2012-12-14 19:15:00
1:35 PM,53.6,30.2,41,30.02,9.0,South,8.1,-,N/A,,Mostly Cloudy,180,2012-12-14 19:35:00
1:55 PM,55.4,30.2,38,30.01,9.0,South,8.1,-,N/A,,Overcast,180,2012-12-14 19:55:00
2:15 PM,55.4,32.0,41,30.00,9.0,South,10.4,-,N/A,,Mostly Cloudy,180,2012-12-14 20:15:00
2:35 PM,55.4,32.0,41,29.98,7.0,South,13.8,20.7,N/A,,Overcast,180,2012-12-14 20:35:00
2:55 PM,53.6,35.6,51,29.98,8.0,SSE,11.5,16.1,N/A,,Overcast,160,2012-12-14 20:55:00
3:15 PM,53.6,35.6,51,29.96,8.0,SSE,9.2,-,N/A,,Overcast,150,2012-12-14 21:15:00
3:35 PM,53.6,33.8,47,29.96,8.0,SSE,9.2,-,N/A,,Overcast,160,2012-12-14 21:35:00
3:55 PM,53.6,33.8,47,29.95,10.0,SSE,10.4,-,N/A,,Overcast,150,2012-12-14 21:55:00
4:15 PM,53.6,33.8,47,29.95,9.0,SSE,8.1,-,N/A,,Overcast,160,2012-12-14 22:15:00
4:35 PM,53.6,32.0,44,29.95,10.0,SSE,10.4,-,N/A,,Overcast,150,2012-12-14 22:35:00
4:55 PM,53.6,32.0,44,29.94,10.0,SSE,8.1,-,N/A,,Overcast,150,2012-12-14 22:55:00
5:15 PM,53.6,30.2,41,29.93,10.0,SSE,8.1,-,N/A,,Overcast,150,2012-12-14 23:15:00
5:35 PM,53.6,30.2,41,29.92,10.0,SE,9.2,-,N/A,,Overcast,140,2012-12-14 23:35:00
5:55 PM,53.6,30.2,41,29.92,10.0,SSE,9.2,-,N/A,,Overcast,150,2012-12-14 23:55:00
6:35 PM,53.6,32.0,44,29.93,10.0,SSE,12.7,-,N/A,,Overcast,150,2012-12-15 00:35:00
6:55 PM,53.6,32.0,44,29.92,10.0,SSE,13.8,-,N/A,,Overcast,160,2012-12-15 00:55:00
7:15 PM,53.6,32.0,44,29.92,8.0,SSE,16.1,23.0,N/A,,Overcast,160,2012-12-15 01:15:00
7:35 PM,51.8,33.8,50,29.92,10.0,South,11.5,-,N/A,,Mostly Cloudy,170,2012-12-15 01:35:00
7:55 PM,50.0,35.6,58,29.93,10.0,South,5.8,-,N/A,,Overcast,180,2012-12-15 01:55:00
8:15 PM,50.0,35.6,58,29.92,10.0,South,5.8,-,N/A,,Overcast,180,2012-12-15 02:15:00
8:35 PM,48.2,35.6,62,29.92,10.0,South,8.1,-,N/A,,Overcast,170,2012-12-15 02:35:00
8:55 PM,48.2,35.6,62,29.90,10.0,SSE,9.2,-,N/A,,Light Drizzle,160,2012-12-15 02:55:00
9:15 PM,46.4,39.2,76,29.89,3.0,South,10.4,-,N/A,Rain,Light Rain,170,2012-12-15 03:15:00
9:35 PM,44.6,41.0,87,29.88,5.0,SSE,10.4,-,N/A,,Mostly Cloudy,150,2012-12-15 03:35:00
9:55 PM,44.6,41.0,87,29.86,2.5,SE,13.8,17.3,N/A,,Mostly Cloudy,140,2012-12-15 03:55:00
10:15 PM,44.6,39.2,81,29.87,2.5,SSE,15.0,-,N/A,,Overcast,150,2012-12-15 04:15:00
10:35 PM,44.6,39.2,81,29.84,3.0,SE,13.8,-,N/A,,Overcast,140,2012-12-15 04:35:00
10:55 PM,44.6,39.2,81,29.84,2.0,SSE,12.7,-,N/A,Thunderstorm,Thunderstorm,150,2012-12-15 04:55:00
11:15 PM,42.8,41.0,93,29.80,1.5,ESE,12.7,-,N/A,,Overcast,120,2012-12-15 05:15:00
11:35 PM,42.8,41.0,93,29.77,9.0,ESE,13.8,21.9,N/A,,Overcast,120,2012-12-15 05:35:00
11:55 PM,44.6,42.8,93,29.77,4.0,SE,11.5,-,N/A,Rain,Light Rain,130,2012-12-15 05:55:00